This is the latest recevied weather packets stored in our database for station/object W3TMB. If no packets are shown the sender has not sent any weather packets the latest 10 day(s).
| Time | Temp. | Humidity | Pressure | Rain* | Wind** | Luminosity | Snow |
|---|---|---|---|---|---|---|---|
| 1778242698 | 5° C | 94% | 1011.3 hPa | 0 mm | - | 92 W/m² | - |
| 1778242397 | 5° C | 95% | 1011.2 hPa | 0 mm | - | 79 W/m² | - |
| 1778242094 | 4.44° C | 95% | 1011.3 hPa | 0 mm | - | 90 W/m² | - |
| 1778241792 | 4.44° C | 95% | 1011.1 hPa | 0 mm | - | 58 W/m² | - |
| 1778241489 | 4.44° C | 95% | 1011.3 hPa | 0 mm | - | 16 W/m² | - |
| 1778241186 | 4.44° C | 95% | 1011.5 hPa | 0 mm | - | 10 W/m² | - |
| 1778240883 | 4.44° C | 96% | 1011.3 hPa | 0 mm | - | 22 W/m² | - |
| 1778240580 | 4.44° C | 96% | 1011.3 hPa | 0 mm | - | 56 W/m² | - |
| 1778240276 | 3.89° C | 96% | 1011.4 hPa | 0 mm | - | 76 W/m² | - |
| 1778239975 | 3.89° C | 96% | 1011.5 hPa | 0 mm | - | 28 W/m² | - |
| 1778239671 | 3.89° C | 96% | 1011.4 hPa | 0 mm | - | 19 W/m² | - |
| 1778239368 | 3.89° C | 97% | 1011.4 hPa | 0 mm | - | 19 W/m² | - |
| 1778239064 | 3.89° C | 97% | 1011.3 hPa | 0 mm | - | 22 W/m² | - |
| 1778238762 | 3.89° C | 98% | 1011.2 hPa | 0 mm | - | 29 W/m² | - |
| 1778238458 | 3.89° C | 98% | 1011.2 hPa | 0 mm | - | 41 W/m² | - |
| 1778238156 | 3.89° C | 99% | 1011.1 hPa | 0 mm | - | 54 W/m² | - |
| 1778237850 | 3.89° C | 99% | 1011 hPa | 0 mm | - | 36 W/m² | - |
| 1778237547 | 3.89° C | 99% | 1011.1 hPa | 0 mm | - | 14 W/m² | - |
| 1778237244 | 3.89° C | 99% | 1011.3 hPa | 0 mm | - | 16 W/m² | - |
| 1778236941 | 3.33° C | 99% | 1011.1 hPa | 0 mm | - | 21 W/m² | - |
| 1778236639 | 2.78° C | 99% | 1010.9 hPa | 0 mm | - | 24 W/m² | - |
| 1778236335 | 2.78° C | 99% | 1010.9 hPa | 0 mm | - | 31 W/m² | - |
| 1778236032 | 2.78° C | 99% | 1010.8 hPa | 0 mm | - | 14 W/m² | - |
| 1778235731 | 2.22° C | 99% | 1010.9 hPa | 0 mm | - | 15 W/m² | - |
| 1778235428 | 2.22° C | 99% | 1010.8 hPa | 0 mm | - | 9 W/m² | - |
* Rain latest hour (hover to see other rain measurements)
** Current wind speed in m/s (hover to see current wind gust speed)